QPF
0.00 0.00 0.00 0.00 0.00 0.00 0.00 0.00 0.00 0.00 0.00 0.00 0.00 0.00 0.00 0.00 0.00 0.00 0.00 0.00 0.00 0.00 0.00 0.00 0.00 0.00 0.01 0.01 0.01 0.02 0.02 0.03 0.03 0.03 0.03 0.04 0.08 0.09 0.09 0.11 0.15 0.16 0.14 0.15
0.00 0.00 0.00 0.00 0.00 0.00 0.00 0.00 0.00 0.00 0.00 0.00 0.00 0.00 0.00 0.00 0.00 0.00 0.00 0.00 0.00 0.00 0.00 0.00 0.00 0.00 0.00 0.01 0.01 0.03 0.06 0.09 0.10 0.11 0.13 0.14 0.16 0.18 0.19 0.22 0.21 0.17 0.16 0.17
0.00 0.00 0.00 0.00 0.00 0.00 0.00 0.00 0.00 0.00 0.00 0.00 0.00 0.00 0.00 0.00 0.00 0.00 0.00 0.00 0.00 0.00 0.00 0.00 0.00 0.00 0.00 0.01 0.01 0.03 0.09 0.16 0.20 0.22 0.19 0.21 0.26 0.28 0.29 0.31 0.29 0.24 0.20 0.18
0.00 0.00 0.00 0.00 0.00 0.00 0.00 0.00 0.00 0.00 0.00 0.00 0.00 0.00 0.00 0.00 0.00 0.00 0.00 0.00 0.00 0.00 0.00 0.00 0.00 0.00 0.01 0.01 0.02 0.05 0.12 0.21 0.24 0.24 0.24 0.28 0.28 0.28 0.31 0.30 0.25 0.15 0.11 0.10
0.00 0.00 0.00 0.00 0.00 0.00 0.00 0.00 0.00 0.00 0.00 0.00 0.00 0.00 0.00 0.00 0.00 0.00 0.00 0.00 0.00 0.00 0.00 0.00 0.00 0.00 0.01 0.01 0.03 0.07 0.12 0.17 0.19 0.22 0.27 0.26 0.25 0.25 0.22 0.17 0.10 0.06 0.05 0.06
0.00 0.00 0.00 0.00 0.00 0.00 0.00 0.00 0.00 0.00 0.00 0.00 0.00 0.00 0.00 0.00 0.00 0.00 0.00 0.00 0.00 0.00 0.00 0.00 0.00 0.01 0.01 0.02 0.04 0.07 0.10 0.12 0.15 0.18 0.23 0.19 0.18 0.18 0.13 0.09 0.05 0.04 0.04 0.04
0.00 0.00 0.00 0.00 0.00 0.00 0.00 0.00 0.00 0.00 0.00 0.00 0.00 0.00 0.00 0.00 0.00 0.00 0.00 0.00 0.00 0.00 0.00 0.00 0.01 0.01 0.01 0.02 0.03 0.06 0.08 0.10 0.13 0.14 0.15 0.16 0.18 0.17 0.11 0.06 0.05 0.03 0.02 0.01
0.00 0.00 0.00 0.00 0.00 0.00 0.00 0.00 0.00 0.00 0.00 0.00 0.00 0.00 0.01 0.00 0.00 0.00 0.00 0.00 0.00 0.00 0.01 0.01 0.01 0.01 0.01 0.02 0.02 0.03 0.03 0.05 0.07 0.09 0.11 0.13 0.15 0.12 0.07 0.04 0.02 0.01 0.00 0.01
0.00 0.00 0.00 0.00 0.00 0.00 0.00 0.00 0.00 0.00 0.00 0.00 0.00 0.01 0.01 0.00 0.00 0.00 0.00 0.00 0.01 0.01 0.01 0.01 0.01 0.01 0.01 0.02 0.02 0.02 0.02 0.04 0.05 0.06 0.07 0.08 0.08 0.05 0.04 0.02 0.01 0.00 0.00 0.00
0.00 0.00 0.00 0.00 0.00 0.00 0.00 0.00 0.00 0.00 0.00 0.00 0.00 0.01 0.01 0.01 0.00 0.00 0.01 0.01 0.01 0.01 0.01 0.01 0.02 0.02 0.02 0.02 0.02 0.02 0.02 0.03 0.04 0.04 0.04 0.04 0.03 0.02 0.01 0.01 0.00 0.00 0.00 0.00
0.00 0.00 0.00 0.00 0.00 0.00 0.00 0.00 0.00 0.00 0.00 0.00 0.00 0.03 0.04 0.05 0.04 0.02 0.01 0.01 0.01 0.01 0.01 0.01 0.02 0.02 0.02 0.02 0.02 0.02 0.02 0.02 0.02 0.02 0.02 0.01 0.01 0.00 0.00 0.00 0.00 0.01 0.00 0.00
0.00 0.00 0.00 0.00 0.00 0.00 0.00 0.00 0.00 0.00 0.00 0.00 0.01 0.05 0.03 0.05 0.08 0.05 0.02 0.01 0.01 0.01 0.01 0.01 0.02 0.02 0.02 0.02 0.02 0.02 0.02 0.01 0.01 0.01 0.01 0.01 0.00 0.00 0.00 0.00 0.00 0.00 0.00 0.00
0.00 0.00 0.01 0.02 0.01 0.00 0.00 0.00 0.00 0.00 0.00 0.00 0.01 0.09 0.08 0.08 0.09 0.07 0.02 0.01 0.01 0.02 0.02 0.02 0.02 0.02 0.02 0.02 0.02 0.02 0.01 0.01 0.01 0.00 0.00 0.00 0.00 0.00 0.00 0.00 0.00 0.00 0.00 0.00
0.00 0.00 0.02 0.06 0.06 0.02 0.01 0.01 0.00 0.00 0.00 0.00 0.01 0.10 0.12 0.12 0.11 0.08 0.05 0.04 0.03 0.03 0.02 0.02 0.03 0.02 0.02 0.01 0.01 0.01 0.01 0.01 0.01 0.01 0.01 0.01 0.01 0.01 0.00 0.00 0.00 0.00 0.00 0.00
0.00 0.00 0.00 0.01 0.01 0.02 0.02 0.02 0.01 0.01 0.01 0.02 0.05 0.12 0.21 0.25 0.25 0.18 0.11 0.07 0.05 0.04 0.04 0.03 0.02 0.02 0.01 0.01 0.01 0.01 0.01 0.01 0.01 0.01 0.01 0.01 0.01 0.00 0.00 0.00 0.00 0.00 0.00 0.00
0.00 0.00 0.00 0.00 0.00 0.01 0.02 0.02 0.03 0.03 0.03 0.04 0.09 0.21 0.34 0.38 0.35 0.27 0.17 0.11 0.09 0.07 0.05 0.04 0.03 0.02 0.02 0.01 0.01 0.01 0.01 0.01 0.01 0.00 0.00 0.00 0.00 0.00 0.00 0.00 0.00 0.00 0.00 0.00
0.00 0.01 0.01 0.01 0.00 0.01 0.04 0.03 0.03 0.04 0.03 0.04 0.11 0.19 0.25 0.26 0.25 0.25 0.22 0.18 0.15 0.11 0.09 0.08 0.07 0.05 0.04 0.04 0.03 0.02 0.02 0.02 0.01 0.01 0.01 0.01 0.00 0.00 0.00 0.00 0.01 0.01 0.01 0.01
0.01 0.01 0.01 0.01 0.03 0.05 0.08 0.04 0.03 0.04 0.05 0.05 0.08 0.12 0.15 0.16 0.17 0.18 0.20 0.23 0.24 0.20 0.18 0.17 0.14 0.14 0.13 0.11 0.08 0.06 0.05 0.03 0.02 0.02 0.01 0.01 0.01 0.01 0.01 0.01 0.01 0.01 0.01 0.01
0.00 0.01 0.02 0.02 0.05 0.09 0.12 0.04 0.02 0.05 0.10 0.07 0.09 0.10 0.09 0.09 0.10 0.10 0.14 0.18 0.23 0.26 0.27 0.24 0.20 0.17 0.14 0.10 0.07 0.05 0.03 0.02 0.02 0.01 0.01 0.01 0.01 0.01 0.02 0.02 0.02 0.02 0.01 0.01
0.00 0.01 0.03 0.04 0.06 0.12 0.14 0.04 0.01 0.04 0.13 0.11 0.11 0.12 0.13 0.14 0.11 0.08 0.10 0.14 0.17 0.18 0.17 0.16 0.14 0.10 0.07 0.05 0.04 0.03 0.02 0.02 0.01 0.01 0.01 0.01 0.02 0.02 0.02 0.01 0.01 0.01 0.01 0.01
0.01 0.02 0.04 0.06 0.08 0.12 0.04 0.01 0.02 0.10 0.17 0.16 0.13 0.13 0.13 0.11 0.10 0.09 0.10 0.11 0.13 0.13 0.10 0.08 0.05 0.04 0.03 0.02 0.02 0.02 0.02 0.02 0.02 0.02 0.02 0.02 0.02 0.01 0.01 0.01 0.01 0.01 0.01 0.02
0.01 0.02 0.05 0.07 0.09 0.12 0.03 0.02 0.06 0.11 0.14 0.12 0.12 0.10 0.06 0.04 0.04 0.05 0.05 0.04 0.03 0.03 0.02 0.02 0.01 0.02 0.02 0.02 0.03 0.03 0.03 0.03 0.03 0.03 0.03 0.02 0.01 0.01 0.01 0.01 0.02 0.02 0.03 0.03
0.00 0.01 0.03 0.06 0.10 0.09 0.03 0.04 0.06 0.07 0.09 0.09 0.08 0.07 0.04 0.02 0.02 0.02 0.02 0.02 0.02 0.01 0.01 0.01 0.01 0.02 0.02 0.03 0.04 0.04 0.04 0.03 0.03 0.04 0.04 0.02 0.01 0.01 0.01 0.01 0.02 0.02 0.03 0.03
0.01 0.01 0.01 0.03 0.07 0.06 0.04 0.03 0.02 0.03 0.06 0.05 0.05 0.06 0.05 0.02 0.01 0.01 0.01 0.01 0.01 0.01 0.01 0.01 0.02 0.02 0.02 0.03 0.03 0.03 0.03 0.03 0.04 0.04 0.03 0.02 0.02 0.02 0.01 0.01 0.01 0.01 0.02 0.02
0.00 0.01 0.01 0.02 0.04 0.04 0.05 0.03 0.02 0.02 0.03 0.04 0.05 0.07 0.06 0.02 0.01 0.01 0.01 0.01 0.01 0.02 0.02 0.02 0.02 0.02 0.02 0.02 0.01 0.01 0.02 0.03 0.04 0.04 0.02 0.02 0.03 0.03 0.02 0.03 0.02 0.01 0.01 0.00
0.00 0.00 0.01 0.04 0.03 0.03 0.04 0.03 0.02 0.02 0.04 0.06 0.07 0.07 0.05 0.03 0.01 0.01 0.02 0.02 0.02 0.02 0.02 0.02 0.02 0.02 0.01 0.01 0.00 0.00 0.00 0.01 0.02 0.03 0.01 0.01 0.02 0.02 0.02 0.03 0.04 0.01 0.00 0.00
MSLP
1008.48 1008.78 1008.82 1008.64 1008.31 1007.92 1007.55 1007.25 1007.04 1006.88 1006.73 1006.50 1006.15 1005.63 1004.96 1004.19 1003.39 1002.67 1002.10 1001.76 1001.66 1001.79 1002.12 1002.58 1003.12 1003.69 1004.27 1004.86 1005.48 1006.16 1006.92 1007.77 1008.71 1009.68 1010.66 1011.57 1012.38 1013.06 1013.58 1013.98 1014.29 1014.55 1014.81 1015.10
1008.69 1008.87 1008.82 1008.57 1008.21 1007.82 1007.49 1007.24 1007.09 1006.97 1006.84 1006.62 1006.25 1005.72 1005.05 1004.30 1003.56 1002.92 1002.47 1002.25 1002.27 1002.49 1002.87 1003.33 1003.80 1004.25 1004.68 1005.10 1005.56 1006.10 1006.77 1007.59 1008.53 1009.57 1010.62 1011.63 1012.54 1013.30 1013.89 1014.34 1014.68 1014.96 1015.23 1015.54
1008.65 1008.74 1008.62 1008.34 1008.01 1007.68 1007.44 1007.29 1007.23 1007.18 1007.09 1006.89 1006.52 1005.99 1005.33 1004.63 1003.98 1003.47 1003.18 1003.13 1003.31 1003.66 1004.11 1004.57 1004.97 1005.30 1005.55 1005.77 1006.03 1006.39 1006.92 1007.64 1008.53 1009.56 1010.65 1011.73 1012.72 1013.56 1014.23 1014.74 1015.14 1015.46 1015.77 1016.09
1008.37 1008.38 1008.22 1007.97 1007.71 1007.50 1007.40 1007.39 1007.45 1007.50 1007.47 1007.29 1006.94 1006.42 1005.81 1005.18 1004.64 1004.29 1004.19 1004.34 1004.70 1005.20 1005.73 1006.21 1006.57 1006.77 1006.85 1006.86 1006.90 1007.05 1007.39 1007.97 1008.77 1009.76 1010.85 1011.95 1012.98 1013.89 1014.64 1015.22 1015.68 1016.06 1016.40 1016.74
1007.92 1007.86 1007.69 1007.50 1007.35 1007.30 1007.37 1007.53 1007.72 1007.88 1007.92 1007.78 1007.45 1006.97 1006.41 1005.87 1005.47 1005.29 1005.38 1005.73 1006.29 1006.94 1007.57 1008.09 1008.41 1008.51 1008.43 1008.25 1008.08 1008.02 1008.18 1008.60 1009.29 1010.19 1011.24 1012.34 1013.40 1014.34 1015.14 1015.79 1016.30 1016.72 1017.09 1017.43
1007.39 1007.28 1007.14 1007.02 1007.00 1007.10 1007.33 1007.65 1007.98 1008.23 1008.33 1008.24 1007.95 1007.51 1007.01 1006.58 1006.32 1006.32 1006.60 1007.15 1007.89 1008.69 1009.42 1009.97 1010.27 1010.30 1010.11 1009.78 1009.44 1009.21 1009.20 1009.48 1010.04 1010.86 1011.84 1012.91 1013.96 1014.92 1015.74 1016.41 1016.96 1017.40 1017.78 1018.13
1006.91 1006.77 1006.65 1006.61 1006.69 1006.93 1007.29 1007.72 1008.15 1008.47 1008.62 1008.56 1008.31 1007.93 1007.52 1007.20 1007.09 1007.25 1007.71 1008.43 1009.32 1010.25 1011.07 1011.67 1011.97 1011.96 1011.69 1011.26 1010.81 1010.46 1010.34 1010.51 1010.97 1011.70 1012.62 1013.64 1014.65 1015.59 1016.40 1017.07 1017.61 1018.05 1018.42 1018.75
1006.59 1006.43 1006.33 1006.34 1006.49 1006.81 1007.24 1007.73 1008.20 1008.55 1008.72 1008.69 1008.48 1008.17 1007.85 1007.65 1007.68 1007.99 1008.61 1009.47 1010.48 1011.50 1012.38 1013.01 1013.32 1013.30 1013.01 1012.55 1012.05 1011.66 1011.48 1011.59 1011.99 1012.65 1013.51 1014.46 1015.41 1016.29 1017.06 1017.69 1018.20 1018.61 1018.95 1019.25
1006.50 1006.33 1006.23 1006.26 1006.44 1006.76 1007.20 1007.68 1008.13 1008.46 1008.63 1008.61 1008.45 1008.21 1007.99 1007.92 1008.08 1008.53 1009.27 1010.24 1011.32 1012.39 1013.31 1013.95 1014.27 1014.27 1013.99 1013.55 1013.07 1012.69 1012.53 1012.63 1013.00 1013.63 1014.42 1015.30 1016.18 1016.99 1017.68 1018.25 1018.69 1019.06 1019.36 1019.63
1006.65 1006.47 1006.38 1006.40 1006.55 1006.84 1007.21 1007.62 1007.99 1008.27 1008.40 1008.39 1008.28 1008.12 1008.02 1008.08 1008.38 1008.95 1009.78 1010.80 1011.91 1012.99 1013.89 1014.53 1014.86 1014.88 1014.64 1014.26 1013.86 1013.55 1013.44 1013.58 1013.97 1014.57 1015.32 1016.13 1016.92 1017.63 1018.23 1018.71 1019.09 1019.40 1019.66 1019.91
1007.01 1006.86 1006.76 1006.76 1006.85 1007.05 1007.32 1007.61 1007.88 1008.07 1008.17 1008.16 1008.10 1008.05 1008.08 1008.28 1008.70 1009.36 1010.25 1011.29 1012.39 1013.42 1014.28 1014.88 1015.20 1015.24 1015.06 1014.77 1014.47 1014.27 1014.25 1014.46 1014.88 1015.47 1016.17 1016.91 1017.61 1018.23 1018.73 1019.12 1019.43 1019.68 1019.91 1020.14
1007.53 1007.41 1007.32 1007.28 1007.32 1007.41 1007.56 1007.73 1007.88 1007.99 1008.05 1008.07 1008.08 1008.14 1008.30 1008.64 1009.17 1009.92 1010.83 1011.86 1012.89 1013.85 1014.63 1015.17 1015.46 1015.51 1015.40 1015.20 1015.02 1014.94 1015.03 1015.31 1015.76 1016.35 1017.01 1017.68 1018.29 1018.80 1019.20 1019.51 1019.75 1019.97 1020.18 1020.41
1008.11 1008.04 1007.98 1007.93 1007.92 1007.93 1007.97 1008.02 1008.07 1008.12 1008.16 1008.22 1008.32 1008.50 1008.80 1009.27 1009.91 1010.71 1011.63 1012.61 1013.56 1014.41 1015.09 1015.55 1015.80 1015.86 1015.80 1015.69 1015.62 1015.65 1015.84 1016.19 1016.68 1017.26 1017.87 1018.46 1018.97 1019.39 1019.70 1019.94 1020.13 1020.32 1020.53 1020.78
1008.68 1008.69 1008.68 1008.65 1008.61 1008.56 1008.53 1008.50 1008.49 1008.50 1008.56 1008.67 1008.86 1009.17 1009.61 1010.19 1010.92 1011.76 1012.66 1013.58 1014.43 1015.16 1015.73 1016.10 1016.30 1016.36 1016.35 1016.32 1016.35 1016.49 1016.76 1017.16 1017.66 1018.21 1018.77 1019.27 1019.70 1020.02 1020.26 1020.44 1020.59 1020.77 1020.98 1021.25
1009.20 1009.30 1009.36 1009.37 1009.34 1009.28 1009.21 1009.15 1009.11 1009.13 1009.21 1009.39 1009.69 1010.12 1010.68 1011.37 1012.16 1013.02 1013.90 1014.74 1015.48 1016.10 1016.55 1016.85 1017.00 1017.06 1017.08 1017.12 1017.23 1017.45 1017.78 1018.21 1018.70 1019.22 1019.70 1020.13 1020.46 1020.70 1020.87 1021.00 1021.13 1021.30 1021.52 1021.81
1009.66 1009.84 1009.98 1010.06 1010.07 1010.03 1009.97 1009.91 1009.88 1009.92 1010.06 1010.32 1010.71 1011.24 1011.91 1012.68 1013.52 1014.38 1015.22 1015.98 1016.64 1017.15 1017.51 1017.73 1017.85 1017.91 1017.97 1018.07 1018.24 1018.51 1018.87 1019.31 1019.78 1020.24 1020.65 1020.98 1021.23 1021.40 1021.51 1021.60 1021.71 1021.86 1022.09 1022.39
1010.06 1010.33 1010.54 1010.69 1010.76 1010.76 1010.73 1010.69 1010.70 1010.78 1010.97 1011.31 1011.78 1012.40 1013.14 1013.97 1014.84 1015.69 1016.49 1017.19 1017.76 1018.19 1018.48 1018.66 1018.76 1018.83 1018.92 1019.07 1019.29 1019.59 1019.97 1020.39 1020.82 1021.21 1021.55 1021.80 1021.96 1022.06 1022.11 1022.16 1022.25 1022.39 1022.60 1022.89
1010.43 1010.76 1011.04 1011.25 1011.38 1011.43 1011.44 1011.44 1011.48 1011.61 1011.85 1012.24 1012.78 1013.46 1014.25 1015.11 1015.99 1016.83 1017.59 1018.24 1018.75 1019.13 1019.37 1019.53 1019.63 1019.72 1019.84 1020.02 1020.28 1020.60 1020.98 1021.37 1021.75 1022.07 1022.33 1022.50 1022.59 1022.62 1022.62 1022.63 1022.69 1022.80 1022.99 1023.25
1010.81 1011.17 1011.49 1011.75 1011.92 1012.01 1012.05 1012.09 1012.16 1012.32 1012.60 1013.03 1013.61 1014.32 1015.14 1016.01 1016.89 1017.72 1018.45 1019.06 1019.53 1019.88 1020.10 1020.25 1020.37 1020.49 1020.64 1020.85 1021.13 1021.45 1021.81 1022.17 1022.49 1022.75 1022.93 1023.03 1023.05 1023.03 1022.99 1022.97 1022.99 1023.07 1023.23 1023.45
1011.22 1011.59 1011.93 1012.20 1012.39 1012.50 1012.57 1012.62 1012.71 1012.89 1013.20 1013.64 1014.24 1014.97 1015.79 1016.66 1017.53 1018.34 1019.05 1019.64 1020.09 1020.42 1020.65 1020.81 1020.94 1021.08 1021.26 1021.49 1021.77 1022.10 1022.43 1022.75 1023.01 1023.21 1023.33 1023.37 1023.35 1023.28 1023.21 1023.15 1023.15 1023.21 1023.33 1023.50
1011.66 1012.02 1012.35 1012.61 1012.80 1012.92 1012.99 1013.05 1013.15 1013.34 1013.65 1014.10 1014.70 1015.42 1016.24 1017.10 1017.95 1018.74 1019.44 1020.01 1020.45 1020.78 1021.01 1021.18 1021.33 1021.50 1021.69 1021.93 1022.21 1022.51 1022.81 1023.09 1023.31 1023.45 1023.53 1023.53 1023.47 1023.38 1023.29 1023.22 1023.20 1023.24 1023.33 1023.48
1012.11 1012.45 1012.76 1013.01 1013.19 1013.30 1013.37 1013.43 1013.53 1013.71 1014.02 1014.47 1015.05 1015.76 1016.56 1017.40 1018.23 1019.00 1019.68 1020.24 1020.67 1021.00 1021.24 1021.42 1021.58 1021.75 1021.95 1022.18 1022.44 1022.71 1022.98 1023.21 1023.39 1023.50 1023.54 1023.52 1023.45 1023.35 1023.26 1023.20 1023.19 1023.22 1023.31 1023.45
1012.55 1012.87 1013.15 1013.39 1013.56 1013.66 1013.73 1013.79 1013.90 1014.08 1014.38 1014.82 1015.39 1016.07 1016.84 1017.65 1018.45 1019.19 1019.85 1020.39 1020.81 1021.13 1021.37 1021.55 1021.71 1021.88 1022.06 1022.27 1022.50 1022.74 1022.97 1023.16 1023.31 1023.39 1023.41 1023.38 1023.32 1023.24 1023.17 1023.14 1023.15 1023.21 1023.32 1023.46
1012.94 1013.24 1013.52 1013.75 1013.92 1014.04 1014.12 1014.20 1014.31 1014.50 1014.80 1015.22 1015.77 1016.43 1017.16 1017.93 1018.68 1019.38 1020.00 1020.52 1020.92 1021.23 1021.45 1021.62 1021.77 1021.91 1022.08 1022.25 1022.45 1022.65 1022.84 1023.00 1023.11 1023.17 1023.19 1023.17 1023.13 1023.08 1023.05 1023.06 1023.12 1023.22 1023.37 1023.56
1013.24 1013.55 1013.84 1014.09 1014.29 1014.44 1014.55 1014.67 1014.81 1015.02 1015.32 1015.73 1016.25 1016.86 1017.54 1018.25 1018.96 1019.61 1020.18 1020.65 1021.02 1021.30 1021.50 1021.65 1021.78 1021.90 1022.03 1022.17 1022.33 1022.49 1022.64 1022.76 1022.85 1022.90 1022.91 1022.90 1022.89 1022.89 1022.91 1022.98 1023.09 1023.26 1023.47 1023.70
1013.43 1013.77 1014.10 1014.40 1014.65 1014.86 1015.04 1015.20 1015.39 1015.62 1015.93 1016.33 1016.81 1017.38 1018.00 1018.64 1019.27 1019.86 1020.37 1020.79 1021.12 1021.36 1021.54 1021.66 1021.77 1021.86 1021.96 1022.06 1022.18 1022.30 1022.41 1022.50 1022.56 1022.60 1022.61 1022.62 1022.63 1022.67 1022.74 1022.87 1023.05 1023.28 1023.55 1023.85
Thickness
5706 5703 5706 5721 5733 5741 5750 5758 5763 5779 5801 5789 5785 5793 5808 5826 5827 5830 5831 5833 5834 5835 5841 5841 5840 5834 5828 5823 5816 5809 5800 5793 5785 5776 5767 5760 5753 5748 5742 5737 5732 5727 5722 5717
5694 5696 5717 5732 5740 5741 5741 5745 5763 5787 5805 5792 5783 5788 5805 5819 5821 5824 5826 5827 5827 5828 5830 5831 5834 5831 5825 5818 5813 5805 5797 5789 5781 5773 5766 5758 5750 5741 5735 5729 5723 5718 5714 5710
5690 5708 5722 5725 5729 5732 5736 5740 5756 5774 5791 5787 5774 5771 5789 5808 5820 5821 5822 5820 5818 5817 5815 5819 5822 5821 5818 5813 5809 5804 5794 5785 5776 5767 5758 5749 5739 5731 5724 5718 5714 5709 5706 5702
5696 5714 5720 5718 5721 5728 5724 5745 5753 5761 5763 5760 5759 5743 5772 5792 5801 5807 5808 5806 5803 5804 5805 5805 5805 5805 5806 5806 5805 5799 5789 5779 5768 5760 5750 5742 5733 5724 5717 5711 5705 5700 5695 5692
5696 5710 5713 5713 5723 5730 5730 5747 5748 5749 5747 5746 5756 5745 5765 5790 5786 5792 5790 5786 5786 5786 5784 5783 5784 5785 5788 5792 5792 5787 5779 5768 5759 5751 5742 5734 5725 5717 5709 5703 5696 5690 5684 5680
5707 5722 5723 5723 5731 5735 5737 5738 5741 5741 5736 5719 5739 5739 5751 5780 5788 5781 5770 5765 5766 5767 5765 5765 5766 5768 5768 5771 5771 5767 5760 5751 5744 5738 5731 5724 5715 5707 5699 5692 5685 5678 5672 5668
5693 5709 5723 5729 5721 5727 5728 5715 5706 5704 5705 5716 5745 5740 5752 5763 5772 5764 5753 5748 5749 5749 5747 5746 5746 5746 5746 5748 5748 5745 5741 5733 5728 5722 5716 5710 5704 5697 5689 5681 5673 5667 5660 5656
5682 5690 5713 5723 5719 5718 5719 5716 5700 5698 5710 5729 5748 5744 5754 5757 5755 5751 5744 5738 5734 5730 5728 5726 5726 5726 5726 5727 5727 5725 5721 5716 5711 5706 5701 5696 5690 5684 5676 5669 5662 5655 5649 5644
5691 5695 5723 5727 5730 5725 5717 5717 5727 5717 5720 5721 5745 5755 5733 5743 5739 5736 5730 5724 5717 5713 5710 5709 5708 5708 5708 5708 5708 5707 5704 5700 5695 5691 5686 5681 5675 5668 5661 5654 5648 5642 5636 5631
5696 5693 5716 5727 5728 5728 5728 5727 5719 5709 5698 5702 5732 5738 5729 5726 5724 5720 5713 5707 5701 5698 5695 5693 5692 5692 5692 5692 5691 5690 5688 5684 5681 5677 5672 5665 5659 5654 5648 5642 5635 5629 5623 5618
5700 5689 5702 5715 5710 5711 5717 5716 5716 5718 5720 5707 5709 5717 5738 5725 5717 5707 5697 5691 5686 5683 5680 5678 5678 5678 5678 5677 5676 5674 5672 5669 5665 5660 5655 5650 5645 5639 5634 5628 5621 5615 5610 5605
5695 5690 5685 5700 5722 5729 5722 5717 5715 5699 5703 5715 5711 5705 5733 5724 5711 5698 5684 5676 5672 5670 5667 5666 5666 5665 5665 5663 5662 5660 5657 5653 5649 5645 5640 5635 5630 5624 5618 5612 5606 5601 5596 5591
5680 5677 5668 5676 5691 5706 5706 5711 5712 5712 5706 5702 5699 5693 5711 5704 5692 5682 5671 5663 5659 5657 5655 5654 5654 5653 5652 5651 5649 5646 5642 5638 5634 5630 5624 5619 5613 5608 5602 5596 5591 5586 5581 5576
5676 5672 5663 5644 5647 5661 5674 5687 5696 5696 5689 5690 5695 5685 5687 5681 5673 5664 5656 5650 5646 5644 5643 5642 5641 5640 5638 5637 5634 5631 5627 5623 5619 5614 5608 5602 5596 5590 5585 5580 5575 5570 5565 5560
5672 5665 5670 5669 5670 5669 5670 5674 5678 5677 5682 5678 5677 5675 5671 5667 5659 5649 5642 5637 5634 5632 5630 5629 5627 5625 5623 5621 5618 5615 5611 5606 5602 5596 5590 5583 5578 5572 5567 5561 5556 5552 5547 5543
5666 5658 5662 5664 5672 5671 5665 5664 5665 5665 5668 5668 5665 5653 5652 5649 5643 5635 5629 5625 5621 5618 5616 5613 5611 5608 5606 5603 5599 5595 5590 5586 5582 5577 5571 5565 5559 5554 5548 5543 5538 5534 5530 5525
5657 5651 5648 5651 5667 5667 5648 5650 5654 5654 5656 5659 5647 5638 5636 5628 5622 5618 5616 5613 5609 5605 5600 5595 5592 5589 5585 5582 5579 5574 5570 5566 5562 5557 5551 5546 5541 5537 5532 5528 5523 5518 5513 5509
5646 5643 5643 5645 5648 5632 5629 5647 5649 5644 5639 5642 5634 5627 5618 5609 5603 5602 5602 5599 5593 5588 5582 5578 5574 5570 5567 5563 5560 5556 5552 5548 5544 5539 5534 5529 5525 5521 5516 5512 5507 5502 5497 5493
5649 5639 5636 5636 5631 5622 5620 5628 5634 5630 5618 5622 5617 5610 5604 5600 5596 5585 5583 5582 5578 5572 5568 5563 5559 5556 5553 5549 5546 5542 5537 5532 5528 5523 5518 5514 5510 5506 5502 5497 5492 5487 5482 5478
5650 5643 5633 5630 5617 5604 5602 5624 5635 5629 5602 5607 5607 5602 5599 5599 5585 5570 5566 5566 5562 5558 5554 5550 5547 5543 5539 5535 5532 5528 5523 5519 5514 5510 5505 5501 5497 5492 5487 5482 5477 5471 5467 5463
5634 5633 5626 5620 5612 5598 5610 5624 5629 5601 5585 5595 5596 5593 5589 5583 5573 5561 5556 5553 5550 5547 5543 5539 5535 5531 5527 5523 5520 5515 5511 5506 5502 5498 5493 5488 5483 5479 5473 5467 5462 5457 5453 5448
5622 5619 5615 5611 5599 5585 5604 5609 5596 5586 5590 5588 5585 5581 5575 5567 5559 5553 5548 5543 5540 5536 5532 5529 5525 5520 5516 5513 5508 5503 5499 5495 5491 5486 5481 5477 5471 5467 5461 5455 5449 5444 5440 5437
5621 5612 5609 5601 5591 5593 5598 5594 5591 5590 5584 5580 5576 5571 5566 5559 5552 5545 5539 5535 5531 5528 5524 5520 5516 5511 5507 5503 5498 5493 5488 5485 5480 5475 5470 5465 5459 5454 5449 5444 5439 5435 5430 5426
5621 5617 5610 5599 5593 5594 5593 5590 5587 5584 5579 5576 5572 5566 5560 5553 5545 5538 5532 5527 5523 5520 5516 5512 5508 5503 5498 5494 5490 5485 5481 5476 5470 5464 5459 5454 5449 5444 5439 5434 5430 5425 5420 5416
5613 5612 5605 5596 5591 5588 5583 5582 5579 5576 5574 5570 5566 5561 5554 5546 5538 5531 5526 5521 5517 5513 5509 5505 5501 5497 5492 5488 5483 5478 5472 5467 5461 5456 5451 5447 5442 5437 5432 5427 5420 5416 5408 5403
5614 5604 5596 5586 5586 5583 5576 5576 5574 5571 5567 5564 5559 5553 5546 5539 5532 5526 5520 5515 5511 5507 5504 5499 5495 5490 5486 5481 5476 5471 5465 5460 5454 5448 5444 5441 5437 5432 5429 5423 5415 5406 5401 5395